Montana Department of Transportation

Main Content

Accidents and Incidents Report

Hourly Weather Roundup

ASUS45 KGTF 211410
RWRMT 
MONTANA HOURLY WEATHER ROUNDUP
NATIONAL WEATHER SERVICE GREAT FALLS MT
800 AM MDT TUE APR 21 2015

NOTE: "FAIR" INDICATES FEW OR NO CLOUDS BELOW 12000 FEET WITH NO
SIGNIFICANT WEATHER AND/OR OBSTRUCTIONS TO VISIBILITY.

MTZ001.007-043-211500-
WEST OF THE DIVIDE
  
CITY           SKY/WX    TMP DP  RH WIND       PRES   REMARKS
KALISPELL      SUNNY     42  36  79 CALM      29.88R                  
MISSOULA       SUNNY     37  32  82 CALM      29.93R                  
BUTTE          SUNNY     31  25  78 CALM      29.94R                  
DEER LODGE       N/A     37  28  70 CALM      29.97R                  
EUREKA           N/A     37  30  75 CALM      29.91R                  
HAMILTON         N/A     43  28  56 S8          N/A                   
LIBBY            N/A     37  32  81 CALM      29.90S                  
--------------------------------

MTZ008-052.055-211500-
SOUTHWEST MONTANA
  
CITY           SKY/WX    TMP DP  RH WIND       PRES   REMARKS
BOZEMAN        SUNNY     38  30  73 SE3       29.92R                  
DILLON         SUNNY     38  27  64 SW8       29.93R                  
--------------------------------

MTZ009-010-012-014-046-048-049-054-211500-
EAST SLOPES AND CENTRAL MONTANA
  
CITY           SKY/WX    TMP DP  RH WIND       PRES   REMARKS
CUT BANK       SUNNY     40  30  67 W6        29.88S                  
GREAT FALLS    SUNNY     41  32  70 W6        29.89R                  
MALMSTROM AFB  SUNNY     35  31  84 SW6       29.90R WCI  30          
HELENA         SUNNY     40  28  62 N3        29.91R                  
--------------------------------

MTZ011-013-016-021-045-047-050-051-211500-
NORTH CENTRAL MONTANA
  
CITY           SKY/WX    TMP DP  RH WIND       PRES   REMARKS
HAVRE          MOSUNNY   41  30  65 CALM      29.87S                  
LEWISTOWN      CLOUDY    44  31  60 SE3       29.89R                  
CHINOOK          N/A     37  28  70 CALM      29.89S                  
FORT BENTON      N/A     43  30  61 SW5       29.90R                  
--------------------------------

MTZ017.020-022.042-056.058-061-062-211500-
EASTERN PLAINS
  
CITY           SKY/WX    TMP DP  RH WIND       PRES   REMARKS
BAKER          SUNNY     35  20  54 E14       29.85R WCI  26          
BILLINGS       MOSUNNY   44  26  49 SW12      29.88R                  
GLASGOW        SUNNY     36  25  64 E14       29.92R WCI  27          
JORDAN           N/A     42  25  50 CALM      29.87R                  
LIVINGSTON     MOSUNNY   36  27  69 NW7       29.91R WCI  30          
MILES CITY     SUNNY     46  24  42 N12       29.84R                  
SIDNEY         MOSUNNY   36  23  60 N5        29.93R                  
WOLF POINT     SUNNY     36  26  67 E15       29.94R WCI  27          
FORSYTH          N/A     43  25  49 W6        29.86R                  
PLENTYWOOD       N/A     34  27  75 NE8       29.95R WCI  27          
POPLAR           N/A     34  27  75 NE9       29.95R WCI  26          
--------------------------------

REGIONAL REPORTS...DAKOTAS
  
CITY           SKY/WX    TMP DP  RH WIND       PRES   REMARKS
WILLISTON      PTSUNNY   37  29  72 NE10      29.93R WCI  30          
MINOT          CLOUDY    32  23  69 N16       29.90R WCI  21          
DICKINSON      PTSUNNY   33  26  75 NE9       29.85R WCI  25          
BEACH          FAIR      34  23  64 E13       29.89R WCI  25          
CROSBY         FAIR      32  32 100 N13       29.95R WCI  22          
WATFORD CITY   FAIR      36  28  75 NE7       29.90R WCI  30          
BISMARCK       MOSUNNY   35  27  72 NW12      29.88R WCI  27          
GRAND FORKS    FLURRIES  32  27  81 N21G29    29.72R WCI  20          
FARGO          CLOUDY    34  27  75 N31G40    29.71R WCI  20          
BUFFALO SD       N/A     36  19  50 NE15      29.75R WCI  27          
RAPID CITY     MOSUNNY   49  24  37 NW8       29.78S                  
--------------------------------

REGIONAL REPORTS...WYOMING/IDAHO/WASHINGTON
  
CITY           SKY/WX    TMP DP  RH WINDPRES   REMARKS
GILLETTE       MOSUNNY   47  24  40 W13       29.85R                  
SHERIDAN       CLOUDY    42  35  76 W3        29.87R                  
BUFFALO WY     PTSUNNY   49  24  37 CALM      29.88R                  
CODY           MOSUNNY   45  28  53 CALM      29.91R                  
YELLOWSTONE LA   N/A     29  22  75 CALM      30.02R                  
IDAHO FALLS    MOSUNNY   40  30  67 CALM      29.91R                  
SALMON         SUNNY     36  27  69 CALM      29.94R                  
BOISE          SUNNY     47  33  58 SE6       29.85R                  
SPOKANE        MOSUNNY   49  37  63 SE7       29.84R                  
--------------------------------

REGIONAL REPORTS...ALBERTA
  
CITY           SKY/WX    TMP DP  RH WIND       PRES   REMARKS
EDMONTON       SUNNY     45  27  49 S6        29.85R                  
CALGARY        PTSUNNY   46  32  57 SW7       29.86S                  
LETHBRIDGE     MOSUNNY   43  34  70 W7        29.87S                  
MEDICINE HAT   MOSUNNY   36  28  75 E8        29.90R WCI  29          
--------------------------------

REGIONAL REPORTS...SASKATCHEWAN
  
CITY           SKY/WX    TMP DP  RH WIND       PRES   REMARKS
SWIFT CURRENT  SUNNY     30  27  86 SE13G20   29.94R WCI  20          
REGINA         MOSUNNY   34  25  69 E7        30.00R WCI  28          
SASKATOON      SUNNY     32  27  80 SE5       30.03R                  
--------------------------------